CAPE
1020 910 1209 970 1121 1199 927 999 1189 1216 1280 1220 1842 1925 2794 2194 1680 1725 1462 1612 1643 1373 1342 1202 1228 976 1070 1027 917 1224 1326 1472 1687 1825 1519 1219 626 0
984 1073 1177 1166 1172 1242 1132 972 826 884 1263 787 1487 1714 1844 1355 1273 1471 1451 1147 1308 1348 1312 1318 1091 546 652 795 755 736 974 1106 1196 1517 1693 1429 1033 36
972 985 1080 983 870 874 1003 1316 939 1041 1167 1421 1019 1452 1470 1570 1629 1512 1242 1853 1411 1066 965 983 884 335 772 747 817 531 486 777 967 981 1428 1529 1234 524
884 825 722 908 991 781 957 1309 1162 1061 1081 1264 969 1085 1268 1272 1159 1303 1431 1300 1325 1173 1040 941 382 371 399 599 505 739 645 833 865 932 1069 1457 1341 790
878 902 906 849 1035 965 1088 1064 906 1005 1164 1202 1222 984 1000 921 1140 1300 1303 1414 897 737 345 127 408 498 514 516 537 396 328 375 726 1046 625 1254 1335 1044
929 944 987 927 924 1076 978 1064 1121 1191 1303 1384 1347 1356 1067 1067 948 965 1121 1117 1061 1050 665 271 707 596 649 479 439 376 290 287 291 845 518 992 1240 1129
1111 1243 1197 1190 1177 1196 1432 1655 1217 1239 1208 1143 1284 1348 1205 1215 1251 1192 1069 946 1007 791 871 1017 977 1060 1035 667 432 263 141 134 147 654 424 682 1023 1088
1562 1469 1296 1393 1360 1198 1212 1203 1239 1590 1670 1173 1563 1390 1551 1090 960 1017 1129 1212 1149 875 1174 1123 894 1284 1118 975 282 127 84 46 113 467 291 481 825 921
1160 1081 1015 1058 1040 1083 1036 1122 1195 1270 1266 1648 1468 1560 1389 1322 1247 1241 1260 1097 935 1042 908 1325 1267 1365 910 499 365 239 76 69 79 146 190 249 679 634
690 729 725 778 774 828 933 1038 1079 1089 1034 940 888 939 1155 1138 872 1030 942 731 717 845 718 983 1204 1149 981 564 501 138 40 138 246 132 110 110 514 423
669 637 546 540 600 814 699 875 954 988 1057 1035 984 964 922 882 888 837 742 680 883 1089 802 820 1007 781 628 543 548 364 158 240 299 161 139 162 198 280
260 254 286 325 333 395 455 446 480 464 582 675 670 650 762 895 973 919 891 837 836 898 935 760 852 575 826 764 538 556 563 575 540 431 142 101 160 274
89 79 88 132 193 240 222 229 168 188 224 260 268 306 379 472 470 563 574 607 670 789 811 651 691 570 514 602 636 725 574 570 615 538 422 241 100 258
118 86 89 89 119 124 153 123 81 67 94 70 57 61 138 202 267 357 717 667 516 740 921 765 658 689 724 820 856 973 897 723 652 402 262 206 122 190
4 0 5 56 58 69 78 91 40 11 21 15 0 0 7 28 229 432 417 514 684 682 702 682 665 826 740 811 854 962 656 661 732 295 167 138 113 154
0 0 0 0 0 0 7 16 18 30 15 0 0 0 18 21 44 404 315 603 397 480 737 711 988 854 705 741 675 785 782 711 754 556 262 184 104 137
0 0 0 0 0 0 0 0 0 1 2 12 3 10 7 6 8 54 230 163 248 367 477 496 850 848 674 603 408 729 831 841 826 761 476 359 385 109
0 0 0 0 0 0 0 0 1 1 5 11 7 19 35 8 2 2 11 40 74 130 263 293 618 840 731 560 178 608 733 722 758 928 713 485 755 959
0 0 0 0 0 0 10 16 13 4 1 0 41 26 5 3 1 4 7 5 0 1 6 55 247 125 31 13 82 5 321 401 729 1214 1160 961 803 1127
0 0 0 0 0 0 0 0 0 0 0 0 25 23 32 6 5 0 0 0 1 4 0 0 7 0 3 4 21 34 1 51 746 975 1187 1427 1183 571
0 0 0 0 0 0 0 0 0 0 0 0 3 11 3 13 6 0 0 0 0 0 0 0 0 0 0 29 0 4 70 32 86 503 786 1231 1285 745
0 0 0 0 0 0 0 0 0 0 0 0 0 0 0 0 0 0 0 0 0 0 0 0 0 17 0 0 0 0 17 233 232 55 21 138 468 88
0 0 0 0 0 0 0 0 0 0 0 0 0 0 0 0 0 0 0 0 0 0 0 0 0 25 24 29 9 14 20 118 196 154 52 58 86 159
CIN
-37 -51 -44 -142 -67 -61 -93 -67 -99 -62 -97 -137 -73 -134 -142 -173 -200 -169 -216 -86 -149 -27 -36 -43 -46 -61 -190 -133 -196 -176 -142 -100 -45 -19 -40 -106 -208 -0
-37 -65 -42 -41 -81 -53 -88 -169 -118 -75 -55 -36 -109 -128 -133 -125 -160 -170 -158 -48 -31 -18 -28 -32 -48 -172 -219 -203 -168 -265 -220 -194 -153 -77 -26 -62 -141 -257
-27 -28 -93 -29 -111 -40 -83 -42 -141 -41 -71 -88 -70 -140 -145 -131 -130 -150 -126 -113 -118 -43 -46 -50 -159 -266 -173 -190 -146 -209 -366 -154 -95 -179 -72 -52 -117 -223
-86 -46 -34 -20 -86 -60 -103 -76 -26 -89 -81 -72 -130 -125 -123 -134 -143 -52 -47 -78 -119 -28 -34 -27 -266 -284 -244 -226 -233 -147 -156 -108 -101 -116 -183 -71 -95 -193
-37 -40 -32 -23 -83 -23 -12 -10 -6 -27 -3 -36 -41 -30 -27 -30 -113 -107 -102 -108 -152 -97 -216 -271 -216 -151 -176 -218 -229 -247 -271 -242 -155 -84 -244 -109 -77 -138
-28 -33 -22 -47 -63 -90 -54 -23 -12 -11 -13 -11 -5 -5 -10 -99 -22 -58 -65 -60 -116 -70 -93 -170 -112 -148 -147 -215 -274 -295 -297 -293 -141 -102 -180 -127 -96 -118
-17 -11 -16 -15 -10 -38 -62 -62 -75 -59 -59 -23 -12 -9 -15 -13 -8 -10 -19 -61 -110 -103 -105 -112 -115 -118 -181 -248 -340 -380 -465 -416 -231 -135 -196 -151 -109 -96
-44 -56 -42 -15 -17 -18 -19 -18 -15 -47 -37 -44 -28 -38 -44 -19 -24 -19 -14 -17 -90 -111 -90 -191 -211 -169 -156 -194 -374 -374 -406 -428 -298 -185 -223 -213 -138 -117
-22 -31 -38 -32 -26 -67 -40 -36 -29 -19 -14 -23 -32 -33 -33 -18 -8 -19 -12 -25 -50 -94 -89 -132 -138 -149 -186 -201 -193 -265 -355 -353 -329 -319 -285 -285 -178 -182
-33 -34 -41 -44 -46 -48 -41 -34 -50 -54 -25 -22 -26 -59 -57 -80 -52 -45 -53 -71 -87 -99 -69 -109 -93 -132 -175 -234 -144 -287 -348 -281 -229 -270 -283 -318 -202 -223
-19 -21 -27 -34 -47 -41 -56 -47 -31 -16 -14 -19 -20 -28 -33 -33 -27 -24 -42 -49 -45 -49 -41 -37 -100 -133 -199 -150 -131 -147 -218 -188 -166 -235 -244 -241 -245 -247
-44 -45 -50 -43 -62 -69 -52 -46 -58 -68 -50 -45 -53 -47 -43 -51 -37 -28 -29 -10 -20 -23 -78 -17 -37 -57 -72 -164 -131 -159 -80 -83 -95 -129 -226 -259 -237 -187
-16 -29 -41 -36 -52 -54 -63 -66 -61 -66 -50 -53 -49 -56 -89 -66 -58 -60 -30 -29 -34 -20 -83 -10 -41 -56 -48 -84 -159 -163 -111 -138 -88 -129 -157 -196 -249 -167
-3 -8 -16 -24 -19 -22 -31 -51 -77 -69 -52 -59 -60 -58 -86 -73 -85 -116 -53 -55 -77 -63 -60 -48 -36 -36 -17 -23 -40 -83 -104 -110 -106 -175 -199 -210 -236 -200
-2 -0 -28 -20 -20 -23 -20 -23 -40 -52 -74 -70 -0 -0 -0 -201 -125 -77 -77 -59 -61 -81 -68 -73 -35 -16 -18 -9 -5 -28 -79 -121 -116 -173 -184 -199 -224 -176
-0 -0 -0 -0 -0 -0 -20 -17 -25 -32 -38 -4 -0 -0 -93 -170 -164 -32 -74 -24 -79 -118 -67 -46 -7 -4 -8 -14 -4 -25 -14 -19 -87 -130 -132 -145 -176 -156
-0 -0 -0 -0 -0 -0 -0 -0 -0 -0 -0 -0 -0 -0 -0 -0 -0 -99 -29 -63 -37 -53 -71 -50 -1 -4 -9 -20 -45 -19 -4 -4 -38 -67 -93 -93 -156 -140
-0 -0 -0 -0 -0 -0 -0 -0 -0 -0 -0 -0 -0 -0 -0 -0 -0 -0 -0 -9 -20 -41 -27 -50 -6 -0 -0 -20 -53 -2 -1 -7 -26 -27 -37 -55 -68 -78
-0 -0 -0 -0 -0 -0 -0 -0 -0 -0 -0 -0 -0 -0 -0 -0 -0 -0 -0 -0 -0 -0 -0 -4 -11 -22 -0 -0 -143 -5 -41 -42 -0 -0 -4 -21 -48 -48
-0 -0 -0 -0 -0 -0 -0 -0 -0 -0 -0 -0 -0 -0 -0 -0 -0 -0 -0 -0 -0 -0 -0 -0 -0 -0 -0 -0 -0 -95 -0 -69 -0 -0 -0 -0 -19 -73
-0 -0 -0 -0 -0 -0 -0 -0 -0 -0 -0 -0 -0 -0 -0 -0 -0 -0 -0 -0 -0 -0 -0 -0 -0 -0 -0 -0 -0 -0 -114 -21 -20 -0 -0 -0 -0 -22
-0 -0 -0 -0 -0 -0 -0 -0 -0 -0 -0 -0 -0 -0 -0 -0 -0 -0 -0 -0 -0 -0 -0 -0 -0 -0 -0 -0 -0 -0 -1 -14 -23 -44 -30 -16 -5 -40
-0 -0 -0 -0 -0 -0 -0 -0 -0 -0 -0 -0 -0 -0 -0 -0 -0 -0 -0 -0 -0 -0 -0 -0 -0 -0 -0 -0 -0 -0 -0 -36 -23 -42 -50 -31 -35 -34
Wind_Speed
9 7 7 8 8 9 11 11 10 9 7 7 7 5 4 3 1 1 1 1 3 7 10 10 11 11 15 18 21 20 20 18 17 17 16 17 16 nan
9 7 7 7 6 6 7 9 9 9 6 6 6 5 4 3 4 3 5 8 7 9 10 10 12 11 10 16 17 20 22 21 19 16 15 15 15 nan
11 9 8 8 7 7 6 6 7 7 6 5 7 5 4 3 1 4 7 9 8 6 7 9 10 8 9 13 15 18 19 21 21 19 17 16 16 14
9 10 8 9 9 8 7 6 6 6 6 2 5 5 4 2 2 4 6 6 8 8 9 9 9 4 6 9 10 16 18 19 21 21 18 15 15 17
8 9 9 8 10 10 8 8 8 9 9 8 5 7 7 5 5 7 10 12 13 12 12 11 10 9 9 10 11 11 15 19 24 23 22 21 16 15
8 9 9 8 9 9 9 8 8 8 8 8 8 7 9 8 8 7 6 8 8 9 11 11 9 10 11 15 16 16 16 17 21 24 25 24 21 17
11 11 10 8 8 8 11 9 11 10 10 9 9 10 6 5 3 5 7 7 9 11 10 10 7 7 8 10 11 14 14 18 20 23 25 25 24 22
13 13 12 12 11 6 6 6 9 8 6 8 6 6 4 5 7 6 8 11 12 15 9 9 8 8 8 7 8 9 nan nan 21 24 25 25 24 22
19 19 15 16 15 14 10 8 8 9 7 7 6 8 8 8 9 9 11 14 14 17 16 10 13 7 10 10 8 5 nan nan nan 21 23 24 24 23
27 25 22 22 27 21 17 15 16 15 16 16 12 11 11 11 14 12 13 13 15 17 22 16 18 11 12 15 12 12 nan 9 15 21 21 21 21 22
38 39 38 36 30 31 30 26 24 23 22 18 15 12 12 14 17 18 19 18 13 16 27 19 19 16 14 16 18 22 19 17 13 14 22 21 22 21
39 41 40 38 32 32 31 31 26 25 26 24 23 21 22 21 26 28 23 22 22 17 32 27 20 22 15 23 20 20 18 18 17 17 16 22 25 21
nan nan nan 39 35 32 34 33 29 28 26 26 26 28 29 29 30 32 33 30 25 22 28 28 21 22 22 14 20 23 20 19 20 22 23 22 26 24
40 nan nan nan 35 35 36 33 nan nan nan nan nan nan 28 31 33 32 32 32 30 23 22 29 22 23 21 15 14 21 25 24 23 21 23 27 28 25
nan nan nan nan nan nan nan nan nan nan nan nan nan nan nan nan 32 33 32 32 30 29 29 28 27 22 23 20 17 19 24 30 32 27 27 28 29 31
nan nan nan nan nan nan nan nan nan nan nan nan nan nan nan nan nan 42 39 41 33 32 34 33 33 28 22 22 21 18 20 22 29 31 29 31 33 31
nan nan nan nan nan nan nan nan nan nan nan nan nan nan nan nan nan nan 43 42 39 35 34 36 38 38 36 30 26 24 19 21 26 29 33 28 30 33
nan nan nan nan nan nan nan nan nan nan nan nan nan nan nan nan nan nan nan nan nan 44 38 37 39 38 37 31 32 22 22 22 28 34 33 30 27 31
nan nan nan nan nan nan nan nan nan nan nan nan nan nan nan nan nan nan nan nan nan nan nan nan 40 43 nan nan nan nan 23 24 29 26 27 30 27 33
nan nan nan nan nan nan nan nan nan nan nan nan nan nan nan nan nan nan nan nan nan nan nan nan nan nan nan nan nan nan nan nan 32 28 31 37 37 43
nan nan nan nan nan nan nan nan nan nan nan nan nan nan nan nan nan nan nan nan nan nan nan nan nan nan nan nan nan nan nan nan nan 34 36 36 34 35
nan nan nan nan nan nan nan nan nan nan nan nan nan nan nan nan nan nan nan nan nan nan nan nan nan nan nan nan nan nan nan 43 44 nan nan 39 34 nan
nan nan nan nan nan nan nan nan nan nan nan nan nan nan nan nan nan nan nan nan nan nan nan nan nan nan nan nan nan nan nan 44 49 49 nan nan nan 31
Wind_Direction
211 201 198 188 185 199 203 216 237 235 234 236 262 266 279 282 24 199 275 56 330 321 334 328 325 3 24 27 26 22 13 1 5 5 357 2 13 nan
223 228 227 216 204 209 212 223 243 263 259 287 294 325 322 356 35 331 320 301 301 305 300 311 328 344 25 33 26 30 22 17 7 1 351 347 352 nan
225 230 233 231 222 221 226 229 250 269 281 274 308 333 345 3 57 299 315 319 322 306 322 333 340 336 20 37 23 23 24 20 19 10 354 345 336 349
230 232 227 241 242 242 239 241 246 270 272 273 278 302 349 13 347 325 325 337 325 344 18 1 360 2 8 19 33 10 18 5 13 15 1 348 340 337
231 242 238 255 249 249 255 250 261 270 288 293 289 305 316 341 339 338 337 342 337 8 10 5 357 31 26 31 30 12 3 0 2 2 3 5 357 342
223 231 236 249 253 256 257 264 265 274 284 300 306 317 328 335 334 337 348 353 4 24 350 11 20 28 33 34 33 34 17 5 358 356 355 357 2 2
235 228 239 245 248 253 253 254 261 257 259 279 297 302 321 324 345 323 337 340 336 341 340 356 357 354 11 21 25 30 19 1 360 355 355 354 354 2
237 238 236 238 235 237 286 314 298 276 269 268 264 278 293 308 312 303 297 291 295 330 328 349 353 340 338 347 10 15 nan nan 352 349 349 346 349 356
240 238 234 241 241 238 238 262 272 307 320 265 271 282 287 287 280 282 297 308 327 328 341 342 344 348 311 306 338 341 nan nan nan 339 341 343 345 344
239 239 238 237 238 237 238 238 242 247 265 278 294 289 292 286 301 298 299 307 318 325 331 332 329 343 317 311 328 307 nan 300 322 328 336 338 338 336
241 243 242 246 242 236 240 239 242 247 252 260 274 274 278 288 295 286 293 297 295 304 307 324 320 322 313 303 309 312 309 309 312 320 323 327 327 318
244 246 246 244 238 242 247 251 250 255 254 250 254 264 277 280 293 299 290 299 300 293 290 312 307 300 303 303 301 302 303 314 319 326 326 315 312 308
nan nan nan 235 233 239 250 254 250 244 250 260 267 273 274 276 279 287 295 295 291 299 291 297 293 293 299 287 290 295 298 298 304 305 317 320 325 325
231 nan nan nan 238 242 253 256 nan nan nan nan nan nan 267 274 277 281 287 296 298 301 286 292 289 286 292 287 278 280 287 291 294 296 296 299 315 321
nan nan nan nan nan nan nan nan nan nan nan nan nan nan nan nan 272 276 282 289 295 298 294 295 293 284 291 291 278 273 270 281 286 283 281 285 288 293
nan nan nan nan nan nan nan nan nan nan nan nan nan nan nan nan nan 272 271 274 274 277 285 293 293 293 291 296 292 281 276 273 280 286 288 287 284 287
nan nan nan nan nan nan nan nan nan nan nan nan nan nan nan nan nan nan 272 273 277 272 270 276 282 289 292 287 280 280 270 279 283 283 288 286 291 293
nan nan nan nan nan nan nan nan nan nan nan nan nan nan nan nan nan nan nan nan nan 273 277 269 273 276 281 292 307 283 284 281 283 287 296 282 277 286
nan nan nan nan nan nan nan nan nan nan nan nan nan nan nan nan nan nan nan nan nan nan nan nan 264 265 nan nan nan nan 289 276 280 286 301 306 290 291
nan nan nan nan nan nan nan nan nan nan nan nan nan nan nan nan nan nan nan nan nan nan nan nan nan nan nan nan nan nan nan nan 280 282 288 293 289 284
nan nan nan nan nan nan nan nan nan nan nan nan nan nan nan nan nan nan nan nan nan nan nan nan nan nan nan nan nan nan nan nan nan 287 285 296 303 294
nan nan nan nan nan nan nan nan nan nan nan nan nan nan nan nan nan nan nan nan nan nan nan nan nan nan nan nan nan nan nan 271 283 nan nan 296 289 nan
nan nan nan nan nan nan nan nan nan nan nan nan nan nan nan nan nan nan nan nan nan nan nan nan nan nan nan nan nan nan nan 257 266 271 nan nan nan 282